Find Local Weather

World > North America > United States > North Dakota

Leroy, North Dakota Regional Weather

Lat: 48.92N, Lon: 97.75W
Wx Zone: NDZ008
Feedback

Leroy, ND Regional Weather

Expires:201905190700;;099569
ASUS43 KBIS 190610
RWRND 

NORTH DAKOTA REGIONAL WEATHER ROUNDUP
NATIONAL WEATHER SERVICE BISMARCK ND
100 AM CDT SUN MAY 19 2019

NOTE: "FAIR" INDICATES FEW OR NO CLOUDS BELOW 12,000 FEET WITH NO
SIGNIFICANT WEATHER AND/OR OBSTRUCTIONS TO VISIBILITY.



NDZ004>008-012>016-024-026-027-054-190700-
NORTHEAST NORTH DAKOTA
  
CITY           SKY/WX    TMP DP  RH WIND       PRES   REMARKS
GRAND FORKS    CLOUDY    48  28  46 NE18G28   29.99S                  
GRND FRKS AFB  CLOUDY    48  27  43 NE14      30.04S                  
DEVILS LAKE    CLOUDY    44  26  49 NE14      30.03S                  
$$
 

SKY/WX - Weather  TMP - Temperature  DP - Dew Point  RH - Relative Humidity
WIND - Wind Direction/Speed PRES - Barometric Pressure VSB - Visibility
WCI - Wind Chill Index E13G22 Wind - East Wind 13 mph/Gusts of 22 mph